Flag for Germany Weather past 2 weeks in Offenburg, Baden-Württemberg, Germany

Now
84 °F

Sunny.


Feels Like: 84 °F
Forecast: 60 / 91 °F
Wind: 10 mph from North

Location: Lahr - CAN-AFB

Current Time: Jun 30, 2015 at 7:32:37 PM

Latest Report: Jun 30, 2015 at 6:50 PM


Visibility: 10 mi

Pressure: 30.04 "Hg

Humidity: 45%

Dew point: 61 °F

Location of OffenburgLocation

Historic Weather in Offenburg — Graph

°F

Offenburg temperature yesterday

Maximum temperature yesterday: 84 °F (at 2:20 PM)
Minimum temperature yesterday: 63 °F (at 7:50 AM)
Average temperature yesterday: 78 °F

Past Weeks' High & Low Weather Summary

 TemperatureHumidityPressure
High88 °F (Jun 30, 4:20 PM)94% (Jun 18, 6:50 PM)30.24 "Hg (Jun 18, 6:50 PM)
Low52 °F (Jun 25, 6:50 AM)30% (Jun 26, 3:50 PM)29.74 "Hg (Jun 22, 7:50 PM)
Average67 °F60%30.11 "Hg
* Reported Jun 15 6:20 PM — Jun 30 6:20 PM, Offenburg, Weather by CustomWeather, © 2015

Note: Actual official high and low records may vary slightly from our data, if they occured in-between our weather recording intervals... More about our weather records

Advertising

Offenburg weather history for previous 24 hours

 ConditionsComfort  
Time TempWeatherWind HumidityBarometerVisibility
6:20 PM
Tue, Jun 30
86 °FSunny.12 mph40%30.04 "Hg10 mi
5:50 PM86 °FPassing clouds.10 mph40%30.04 "HgN/A
4:50 PM86 °FPassing clouds.10 mph40%30.07 "HgN/A
4:20 PM88 °FSunny.9 mph40%30.07 "Hg10 mi
3:50 PM86 °FPassing clouds.9 mph40%30.07 "HgN/A
2:50 PM86 °FPassing clouds.7 mph38%30.09 "HgN/A
2:20 PM84 °FPassing clouds.8 mph43%30.09 "HgN/A
1:50 PM84 °FPassing clouds.7 mph45%30.09 "HgN/A
1:20 PM84 °FPassing clouds.7 mph40%30.12 "HgN/A
12:50 PM82 °FPassing clouds.7 mph45%30.12 "HgN/A
12:20 PM81 °FPassing clouds.6 mph51%30.12 "HgN/A
11:50 AM79 °FPassing clouds.5 mph54%30.12 "HgN/A
10:50 AM77 °FPassing clouds.5 mph54%30.15 "HgN/A
9:50 AM72 °FPassing clouds.5 mph61%30.15 "HgN/A
9:20 AM72 °FSunny.3 mph65%30.15 "Hg10 mi
8:50 AM70 °FSunny.3 mph69%30.15 "Hg10 mi
8:20 AM68 °FSunny.3 mph69%30.15 "Hg10 mi
7:50 AM66 °FSunny.2 mph78%30.15 "Hg10 mi
8:50 PM
Mon, Jun 29
81 °FSunny.2 mph42%30.12 "Hg10 mi
7:50 PM82 °FSunny.2 mph40%30.12 "Hg10 mi
7:20 PM82 °FSunny.3 mph40%30.12 "Hg10 mi
Weather by CustomWeather, © 2015

See weather overviewHow to use our weather pages